EW9748 Weather Reports


time (UTC)temp
C
wind
direction
speed
KPH
gust
KPH
rain 1hr
cm
rain 24hr
cm
rain mn
cm
humidity
%
barometer
mb
20260509034556 21 5 0.0 0.0 0.00 0.00 0.00 80 1005.5
20260509033056 21 5 0.0 0.0 0.00 0.00 0.00 79 1005.4
20260509031555 21 5 0.0 0.0 0.00 0.00 0.00 78 1005.2
20260509030053 21 5 0.0 0.0 0.00 0.00 0.00 78 1005.1
20260509024554 21 5 0.0 0.0 0.00 0.00 0.00 77 1004.9
20260509023053 21 5 0.0 0.0 0.00 0.00 0.00 76 1004.9
20260509021553 22 5 0.0 0.0 0.00 0.00 0.00 76 1004.8
20260509020052 22 5 0.0 0.0 0.00 0.00 0.00 75 1004.6
20260509014552 22 5 0.0 0.0 0.00 0.00 0.00 73 1004.4
20260509013056 22 5 0.0 0.0 0.00 0.00 0.00 72 1004.5
20260509011551 23 5 0.0 0.0 0.00 0.00 0.00 71 1004.3
20260509010050 23 5 0.0 0.0 0.00 0.00 0.00 69 1004.2
20260509004650 24 5 0.0 0.0 0.00 0.00 0.00 67 1004.1
20260509003051 24 5 0.0 0.0 0.00 0.00 0.00 66 1004.0
20260509001552 25 5 0.0 0.0 0.00 0.00 0.00 65 1003.9
20260509000048 25 5 0.0 0.0 0.00 0.00 0.00 65 1003.9
20260508234548 25 5 0.0 0.0 0.00 0.00 0.00 64 1003.8
20260508233047 25 5 0.0 0.0 0.00 0.00 0.00 64 1003.9
20260508231547 25 5 0.0 1.6 0.00 0.00 0.00 64 1003.7
20260508230048 25 5 0.0 1.6 0.00 0.00 0.00 61 1003.7
20260508224550 26 5 0.0 6.4 0.00 0.00 0.00 60 1003.6
20260508223049 26 5 0.0 1.6 0.00 0.00 0.00 59 1003.7
20260508221540 26 5 0.0 0.0 0.00 0.00 0.00 61 1003.9
20260508220039 25 5 0.0 0.0 0.00 0.00 0.00 62 1004.0
20260508214552 25 5 0.0 0.0 0.00 0.00 0.00 63 1004.3
20260508213034 25 5 0.0 0.0 0.00 0.00 0.00 61 1004.6
20260508211533 25 5 0.0 0.0 0.00 0.00 0.00 61 1004.7
20260508210035 26 5 0.0 0.0 0.00 0.00 0.00 59 1004.9
20260508204533 26 5 0.0 0.0 0.00 0.00 0.00 59 1005.0
20260508203026 26 5 0.0 0.0 0.00 0.00 0.00 59 1005.3
20260508201526 26 5 0.0 1.6 0.00 0.00 0.00 59 1005.4
20260508200026 26 5 0.0 0.0 0.00 0.00 0.00 60 1005.5
20260508194522 26 5 0.0 0.0 0.00 0.00 0.00 59 1005.8
20260508193022 26 5 0.0 1.6 0.00 0.00 0.00 59 1005.9
20260508191519 26 5 0.0 1.6 0.00 0.00 0.00 60 1006.2
20260508190036 26 5 0.0 6.4 0.00 0.00 0.00 59 1006.5
20260508184527 26 5 0.0 0.0 0.00 0.00 0.00 59 1006.5
20260508183026 26 5 0.0 1.6 0.00 0.00 0.00 60 1006.8
20260508181509 26 5 0.0 0.0 0.00 0.00 0.00 58 1007.0
20260508180005 25 5 0.0 0.0 0.00 0.00 0.00 61 1007.4
20260508174502 25 5 0.0 0.0 0.00 0.00 0.00 63 1007.6
20260508173058 24 5 0.0 0.0 0.00 0.00 0.00 66 1007.8
20260508171553 23 5 0.0 0.0 0.00 0.00 0.00 68 1008.1
20260508170049 22 5 0.0 0.0 0.00 0.00 0.00 72 1008.4
20260508164550 21 5 0.0 0.0 0.00 0.00 0.00 73 1008.6
20260508163041 20 5 0.0 0.0 0.00 0.00 0.00 73 1009.0
20260508161537 18 5 0.0 0.0 0.00 0.00 0.00 76 1009.6
20260508160036 17 5 0.0 0.0 0.00 0.00 0.00 77 1009.7
20260508154535 17 5 0.0 0.0 0.00 0.00 0.00 78 1009.7
20260508153035 16 5 0.0 1.6 0.00 0.00 0.00 78 1010.0
20260508151528 17 5 0.0 1.6 0.00 0.00 0.00 77 1010.2
20260508150030 17 5 0.0 0.0 0.00 0.00 0.00 77 1010.3
20260508144530 17 5 0.0 0.0 0.00 0.00 0.00 77 1010.1
20260508143024 16 5 0.0 0.0 0.00 0.00 0.00 79 1010.0
20260508141522 16 5 0.0 0.0 0.00 0.00 0.00 80 1010.0
20260508140022 15 5 0.0 0.0 0.00 0.00 0.00 80 1010.3
20260508134514 15 5 0.0 0.0 0.00 0.00 0.00 80 1010.5
20260508133013 15 5 0.0 0.0 0.00 0.00 0.00 81 1010.6
20260508131512 14 5 0.0 1.6 0.00 0.00 0.00 81 1010.7
20260508130024 14 5 0.0 0.0 0.00 0.00 0.00 81 1010.7
20260508124509 14 5 0.0 0.0 0.00 0.00 0.00 81 1010.6
20260508123014 14 5 0.0 0.0 0.00 0.00 0.00 81 1010.7
20260508121507 14 5 0.0 0.0 0.00 0.00 0.00 80 1010.6
20260508120006 14 5 0.0 0.0 0.00 0.00 0.00 80 1010.6
20260508114506 14 5 0.0 0.0 0.00 0.00 0.00 80 1010.7
20260508113005 14 5 0.0 0.0 0.00 0.00 0.00 79 1010.6
20260508111506 14 5 0.0 0.0 0.00 0.00 0.00 79 1010.6
20260508110004 14 5 0.0 0.0 0.00 0.00 0.00 79 1010.7
20260508104504 14 5 0.0 0.0 0.00 0.00 0.00 79 1010.8
20260508103005 14 5 0.0 0.0 0.00 0.00 0.00 79 1010.6
20260508101502 14 5 0.0 0.0 0.00 0.00 0.00 80 1010.6
20260508100001 14 5 0.0 0.0 0.00 0.00 0.00 80 1010.7
20260508094600 14 5 0.0 0.0 0.00 0.00 0.00 80 1010.8
20260508093106 14 5 0.0 0.0 0.00 0.00 0.00 80 1011.0
20260508091558 13 5 0.0 0.0 0.00 0.00 0.00 80 1011.3
20260508090111 13 5 0.0 0.0 0.00 0.00 0.00 80 1011.2
20260508084559 13 5 0.0 0.0 0.00 0.00 0.00 81 1011.0
20260508083103 13 5 0.0 0.0 0.00 0.00 0.00 81 1011.1
20260508081601 13 5 0.0 0.0 0.00 0.00 0.00 81 1011.3
20260508074553 13 5 0.0 0.0 0.00 0.00 0.00 82 1011.1
20260508073052 13 5 0.0 0.0 0.00 0.00 0.00 82 1011.0
20260508071551 13 5 0.0 0.0 0.00 0.00 0.00 81 1010.9
20260508070050 13 5 0.0 0.0 0.00 0.00 0.00 80 1011.1
20260508064547 13 5 0.0 0.0 0.00 0.00 0.00 80 1011.2
20260508063058 13 5 0.0 0.0 0.00 0.00 0.00 79 1011.4
20260508061546 13 5 0.0 0.0 0.00 0.00 0.00 78 1011.5
20260508060041 13 5 0.0 0.0 0.00 0.00 0.00 78 1011.7
20260508054540 13 5 0.0 0.0 0.00 0.00 0.00 78 1011.8
20260508053036 13 5 0.0 0.0 0.00 0.00 0.00 78 1012.3
20260508051537 13 5 0.0 0.0 0.00 0.00 0.00 78 1012.6
20260508050038 13 5 0.0 0.0 0.00 0.00 0.00 78 1012.2
20260508044533 13 5 0.0 0.0 0.00 0.00 0.00 78 1012.3
20260508043046 13 5 0.0 0.0 0.00 0.00 0.00 78 1012.4
20260508041530 13 5 0.0 0.0 0.00 0.00 0.00 77 1012.6
20260508040036 13 5 0.0 0.0 0.00 0.00 0.00 76 1012.7